ARIANE 40 R/B (21610 NORAD) Tracking and Keplerian Element Data

This shows tracking and keplerian element data for the satellite.

Feedback or suggestion? Click here.




ElementValue
Catalog21610
NameARIANE 40 R/B
Epoch Orbit41708
Epoch Day198.81259552
Epoch Year2018
RAAN261.5856
Inclination98.5532
Eccentricity0.0003124
Argument of Perigee177.7208
Mean Anonmoly295.1171
Mean Motion14.40843518
Decay Rate-6E-08
L11 21610U 91050F 18198.81259552 -.00000006 00000-0 12160-4 0 9990
L22 21610 98.5532 261.5856 0003124 177.7208 295.1171 14.40843518417083

Live tracking and technical data element details for ARIANE 40 R/B (NORAD 21610). ARIANE 40 R/B can be tracked NOW for your location showing map with azimuth and elevation plus other details from your city location.

Track the satellite on the map from your city or location and see movement details for azimuth, elevation, latitude, longitude, range, height, and movement on the map or in text.







IsCatalogInMostPopularTable: catalog: 21610, numindb: 27
Update: records affected: 1



GetName: 21610 ARIANE 40 R/B

Hit Count: updated at: Fri, 20 Jul 2018 20:35:09 GMT